Overview Statistics Trail Chart Weather Telemetry Raw packets
 

This is the latest recevied weather packets stored in our database for station/object K2CAT. If no packets are shown the sender has not sent any weather packets the latest 10 day(s).

<< 29 30 31 32 33 34 35 >>
Time Temp. Humidity Pressure Rain* Wind** Luminosity Snow
1777504177 16.67° C 59% 1009.1 hPa 0 mm - 14 W/m² -
1777503873 16.67° C 58% 1009.2 hPa 0 mm - 16 W/m² -
1777503569 16.67° C 59% 1009.3 hPa 0 mm - 19 W/m² -
1777503267 16.67° C 58% 1009 hPa 0 mm - 26 W/m² -
1777502963 16.67° C 57% 1009.3 hPa 0 mm - 29 W/m² -
1777502660 16.67° C 58% 1009 hPa 0 mm - 31 W/m² -
1777502357 17.22° C 58% 1009.3 hPa 0 mm - 37 W/m² -
1777502054 17.22° C 58% 1009.3 hPa 0 mm - 43 W/m² -
1777501750 17.22° C 58% 1009.2 hPa 0 mm - 44 W/m² -
1777501448 17.22° C 58% 1009.2 hPa 0 mm - 40 W/m² -
1777501145 17.22° C 58% 1009.6 hPa 0 mm - 40 W/m² -
1777500844 17.78° C 57% 1009.6 hPa 0 mm - 48 W/m² -
1777500540 17.78° C 57% 1009.7 hPa 0 mm - 60 W/m² -
1777500236 17.78° C 57% 1009.5 hPa 0 mm - 68 W/m² -
1777499933 17.78° C 56% 1009.5 hPa 0 mm - 78 W/m² -
1777499629 17.78° C 55% 1009.8 hPa 0 mm - 73 W/m² -
1777499327 17.78° C 56% 1009.8 hPa 0 mm - 66 W/m² -
1777499024 17.78° C 55% 1009.8 hPa 0 mm - 61 W/m² -
1777498720 17.78° C 55% 1009.7 hPa 0 mm - 65 W/m² -
1777498417 17.78° C 54% 1009.6 hPa 0 mm - 72 W/m² -
1777498114 18.33° C 55% 1009.8 hPa 0 mm - 74 W/m² -
1777497812 18.33° C 53% 1010 hPa 0 mm - 81 W/m² -
1777497508 18.33° C 52% 1010 hPa 0 mm - 94 W/m² -
1777497204 18.89° C 52% 1009.9 hPa 0 mm - 94 W/m² -
1777496901 18.33° C 56% 1010 hPa 0 mm - 87 W/m² -

* Rain latest hour (hover to see other rain measurements)
** Current wind speed in m/s (hover to see current wind gust speed)